Location: Newark
(43.0000°N, 1.6781°W)
Time: 09:10:36
(UTC+00:00)

AO-7 - Pass Details

Date: 13 December 2022
Orbit: 1440 x 1459 km, 101.9° (Epoch: 28 January)

Event Time Altitude Azimuth Distance (km) Brightness Sun altitude
Rises 06:15:06 0° 12° (NNE) 4,546 ? -13.1°
Reaches altitude 10° 06:18:05 10° 6° (N) 3,567 ? -12.6°
Maximum altitude 06:25:31 39° 302° (WNW) 2,057 ? -11.3°
Drops below altitude 10° 06:32:59 10° 238° (WSW) 3,564 ? -10.0°
Sets 06:35:58 0° 231° (SW) 4,542 ? -9.5°
